Location: Lhota
(50.0887°N, 14.0116°E)
Time: 10:41:21
(UTC+00:00)

Cosmos 2218 Rocket - Pass Details

Date: 19 May 2025
Orbit: 954 x 1006 km, 82.9° (Epoch: 23 June)

Event Time Altitude Azimuth Distance (km) Brightness Sun altitude
Rises 20:31:56 0° 350° (N) 3,740 8.3 -12.6°
Reaches altitude 10° 20:34:30 10° 351° (N) 2,782 7.5 -12.9°
Maximum altitude 20:40:55 87° 81° (E) 1,001 4.0 -13.5°
Enters shadow 20:46:02 16° 171° (S) 2,299 5.4 -13.9°
